This demonstration page uses our WeatherBlox Daily Observations layout. Learn more.

Left ArrowRight Arrow

40.92501, -98.34201

Hourly Observations for February 11, 2022

Temp ( °F °C ) Dew Point ( °F °C ) Humidity (%) Winds ( mph kmh ) Pressure ( in mb ) Visibility ( mi km ) Precip ( " mm )
12:12 am 00:12 Clear 49 9.4 36 2.2 61 61 NNE 14 22 29.66 1004 10 16 0.00 0.00
12:53 am 00:53 Partly Cloudy 46 7.8 35 1.7 66 66 NNE 7 11 29.67 1005 10 16 0.00 0.00
1:53 am 01:53 Clear 46 7.8 36 2.2 68 68 N 15 24 29.69 1005 10 16 0.00 0.00
2:53 am 02:53 Cloudy 45 7.2 35 1.7 68 68 NNW 21 33 29.72 1006 10 16 0.00 0.00
3:53 am 03:53 Cloudy 43 6.1 36 2.2 76 76 NNW 13 20 29.73 1007 10 16 0.00 0.00
4:53 am 04:53 Cloudy 43 6.1 35 1.7 74 74 NW 22 35 29.76 1008 10 16 0.00 0.00
5:53 am 05:53 Clear 41 5 33 0.6 73 73 NW 20 31 29.81 1010 10 16 0.00 0.00
6:53 am 06:53 Mostly Clear 41 5 32 0 70 70 NW 18 30 29.84 1010 10 16 0.00 0.00
7:53 am 07:53 Sunny 40 4.4 31 -0.6 70 70 NW 18 30 29.88 1012 10 16 0.00 0.00
8:53 am 08:53 Sunny 41 5 31 -0.6 67 67 NW 23 37 29.91 1013 10 16 0.00 0.00
9:53 am 09:53 Sunny 45 7.2 29 -1.7 54 54 NW 32 52 29.92 1013 10 16 0.00 0.00
10:53 am 10:53 Partly Cloudy 46 7.8 30 -1.1 54 54 NNW 26 43 29.96 1015 10 16 0.00 0.00
11:53 am 11:53 Mostly Cloudy 46 7.8 27 -2.8 47 47 NNW 31 50 29.99 1016 10 16 0.00 0.00
12:53 pm 12:53 Sunny 46 7.8 24 -4.4 42 42 NNW 31 50 30.02 1017 10 16 0.00 0.00
1:53 pm 13:53 Partly Cloudy 43 6.1 17 -8.3 35 35 NNW 30 48 30.06 1018 10 16 0.00 0.00
2:53 pm 14:53 Sunny 39 3.9 16 -8.9 39 39 NNW 28 44 30.11 1020 10 16 0.00 0.00
3:53 pm 15:53 Sunny 36 2.2 14 -10 40 40 NNW 30 48 30.17 1022 10 16 0.00 0.00
4:53 pm 16:53 Sunny 31 -0.6 12 -11.1 45 45 NNW 30 48 30.23 1024 10 16 0.00 0.00
5:53 pm 17:53 Sunny 27 -2.8 9 -12.8 46 46 N 26 43 30.28 1025 10 16 0.00 0.00
6:53 pm 18:53 Clear 23 -5 7 -13.9 50 50 N 25 41 30.34 1028 10 16 0.00 0.00
7:53 pm 19:53 Clear 21 -6.1 6 -14.4 52 52 NNW 18 30 30.40 1029 10 16 0.00 0.00
8:53 pm 20:53 Clear 20 -6.7 6 -14.4 55 55 NNW 20 31 30.43 1031 10 16 0.00 0.00
9:53 pm 21:53 Clear 18 -7.8 5 -15 57 57 NNW 15 24 30.46 1031 10 16 0.00 0.00
10:53 pm 22:53 Clear 16 -8.9 4 -15.6 59 59 N 9 15 30.49 1033 10 16 0.00 0.00
11:53 pm 23:53 Clear 13 -10.6 3 -16.1 64 64 NW 8 13 30.52 1033 10 16 0.00 0.00

Powered by AerisWeather